Regional Weather Roundup
Issued by NWS

Home | Current Version | Previous Version | Graphics & Text | Print | Product List | Glossary On
Versions: 1 2 3 4 5 6 7 8 9 10 11 12 13 14 15 16 17 18 19 20 21 22 23 24 25 26 27 28 29 30 31 32 33 34 35 36 37 38 39 40 41 42 43 44 45 46 47 48 49 50
000
ASUS43 KIND 210909
RWRIN

WEATHER ROUNDUP FOR INDIANA
NATIONAL WEATHER SERVICE INDIANAPOLIS IN
500 AM EDT THU SEP 21 2017

NOTE: "FAIR" INDICATES FEW OR NO CLOUDS BELOW 12,000 FEET WITH NO
SIGNIFICANT WEATHER AND/OR OBSTRUCTIONS TO VISIBILITY.

* - STATION DOES NOT REPORT WEATHER SUCH AS PRECIPITATION OR FOG.

+ - STATION NOT QUALITY CONTROLLED BY THE NATIONAL WEATHER SERVICE.
    USE DATA WITH CAUTION...ESPECIALLY DEWPOINT AND RELATIVE
    HUMIDITY OBSERVATIONS.

INZ001>003-010>013-019-020-211000-
NORTHWEST INDIANA

CITY           SKY/WX    TMP DP  RH WIND       PRES   REMARKS
GARY /AIRPORT/ PTCLDY    75  68  79 CALM      29.97R
KNOX *+        PTCLDY    68  68 100 S3        29.98S
LA PORTE +     PTCLDY    68  67  94 CALM      30.00R
MICHIGAN CITY+ MOCLDY    73  66  78 S3        29.98S
MONTICELLO +   MOCLDY    70  69  95 CALM      29.99S
RENSSELAER +   CLOUDY    68  63  83 CALM      29.99S
VALPARAISO     CLOUDY    72  69  90 S3        29.98F

$$

LMZ046-743>745-211000-
SOUTHERN LAKE MICHIGAN

STATION/POSITION TIME  TEMP    WIND        PRES    WAVE
                       AIR SEA DIR/SP/G            HT
                 (UTC) (F)     (DEG/KT/KT) (MB)    (FT)
BURNS HARBOR     0840   75     190/ 11/ 13 1014.9S
MICHIGAN CITY    0840   76     160/ 11/ 15   N/A
5NW MICH CITY    0900   72 70  180/  6/  6   N/A     1

$$

INZ004-005-014>016-021>024-211000-
NORTH CENTRAL INDIANA

CITY           SKY/WX    TMP DP  RH WIND       PRES   REMARKS
GOSHEN         CLOUDY    72  67  84 S5        30.01R
LOGANSPORT +   PTCLDY    70  68  94 S5        30.01F
PERU/GRISSOM   CLOUDY    70  70 100 S6        30.01S
ROCHESTER +    PTCLDY    73  72  94 S5        30.01F
SOUTH BEND     PTCLDY    70  69  97 SE3       30.00R
WARSAW +       CLOUDY    70  70 100 CALM      30.01S

$$

INZ006>009-017-018-025>027-211000-
NORTHEAST INDIANA

CITY           SKY/WX    TMP DP  RH WIND       PRES   REMARKS
AUBURN +       CLOUDY    68  66  94 CALM      30.03F FOG
FORT WAYNE     CLOUDY    67  65  93 S6        30.03F
HUNTINGTON +   PTCLDY    69  68  96 CALM      30.02F
KENDALLVILLE + CLOUDY    69  69  99 S5        30.03S FOG

$$

INZ028-029-035-036-043>045-051>053-211000-
WEST CENTRAL INDIANA

CITY           SKY/WX    TMP DP  RH WIND       PRES   REMARKS
CRAWFORDSVL +  CLOUDY    66  66 100 CALM      30.02R FOG
GREENCASTLE +  CLOUDY    68  66  94 S3        30.02F FOG
LAFAYETTE      CLOUDY    70  69  97 CALM      30.00S
TERRE HAUTE    CLEAR     68  66  93 CALM      30.00F FOG

$$

INZ030>032-037>040-046>048-054>057-064-065-211000-
CENTRAL INDIANA

CITY           SKY/WX    TMP DP  RH WIND       PRES   REMARKS
CP ATTERBURY + FOG       64  64 100 CALM      30.05R VSB<1/4
FISHERS *+     CLEAR     68  68 100 CALM      30.04R
FRANKFORT +    CLOUDY    69  68  96 CALM      30.04S FOG
GREENWOOD *+   CLEAR     74  72  95 S5        30.04S
INDIANAPOLIS   CLEAR     74  70  87 SE7       30.02S
-EAGLE CREEK   CLEAR     72  69  90 SE3       30.02S
KOKOMO +       MOCLDY    69  68  96 S6        30.03F FOG
MT COMFORT *+    N/A    N/A N/A N/A MISG        N/A
SHELBYVILLE    CLEAR     69  65  86 SE3       30.03F
ZIONSVILLE +   CLOUDY    66  66  99 SE3       30.05R FOG

$$

INZ033-034-041-042-049-050-058-059-211000-
EAST CENTRAL INDIANA

CITY           SKY/WX    TMP DP  RH WIND       PRES   REMARKS
MUNCIE         CLEAR     73  68  84 S5        30.05R
RICHMOND +     CLOUDY    64  64 100 CALM      30.08S FOG

$$

INZ060-061-067>069-081>083-085>088-211000-
SOUTHWEST INDIANA

CITY           SKY/WX    TMP DP  RH WIND       PRES   REMARKS
EVANSVILLE     CLEAR     71  69  93 CALM      30.02S
HUNTINGBURG +    N/A    N/A N/A N/A MISG        N/A
WASHINGTON +   CLEAR     72  70  94 SE3       30.02R

$$

INZ062-063-066-070>080-084-089>092-211000-
SOUTH CENTRAL AND SOUTHEAST INDIANA

CITY           SKY/WX    TMP DP  RH WIND       PRES   REMARKS
BEDFORD +        N/A     68  66  94 CALM      30.03R FOG
BLOOMINGTON    CLEAR     69  66  90 CALM      30.03S FOG
MADISON *+     CLEAR     68  66  94 CALM      30.07S
NORTH VERNON + CLEAR     64  64 100 CALM      30.05S FOG
SEYMOUR +      CLEAR     68  66  94 CALM      30.04R FOG

$$




USA.gov is the U.S. government's official web portal to all federal, state and local government web resources and services.